Regional Weather Roundup
Issued by NWS Burlington, VT

Home | Current Version | Previous Version | Text Only | Print | Product List | Glossary On
Versions: 1 2 3 4 5 6 7 8 9 10 11 12 13 14 15 16 17 18 19 20 21 22 23 24 25 26 27 28 29 30 31 32 33 34 35 36 37 38 39 40 41 42 43 44 45 46 47 48 49 50
000
ASUS41 KBTV 201130
RWRBTV
VERMONT REGIONAL WEATHER ROUNDUP
NATIONAL WEATHER SERVICE BURLINGTON VT
700 AM EDT FRI APR 20 2018

NOTE: "FAIR" INDICATES FEW OR NO CLOUDS BELOW 12,000 FEET WITH NO
SIGNIFICANT WEATHER AND/OR OBSTRUCTIONS TO VISIBILITY.

* THESE REPORTS ARE NOT UNDER NWS QUALITY CONTROL AND/OR DO NOT
  REPORT WEATHER SUCH AS PRECIPITATION AND FOG.

VTZ001>019-201200-
_____VERMONT_____


CITY           SKY/WX    TMP DP  RH WIND       PRES   REMARKS
BURLINGTON     LGT SNOW  33  26  75 NW14G20   30.05R WCI  23
MONTPELIER     CLOUDY    29  26  89 NW16G23   30.01R WCI  17
MORRISVILLE    LGT SNOW  31  25  78 NW10      30.00R WCI  22
ST. JOHNSBURY*   N/A     32  27  81 MISG      29.94R
LYNDONVILLE*   LGT SNOW  30  27  90 W13       29.95R WCI  20
MIDDLEBURY*    CLOUDY    31  27  84 N5        30.05R WCI  26
RUTLAND*       FLURRIES  31  28  89 NW8       30.02R WCI  23
SPRINGFIELD    CLOUDY    33  25  72 NW9       30.00R WCI  25
HIGHGATE*      LGT SNOW  31  29  92 W3        30.04R
NEWPORT*       CLOUDY    30  26  85 W10G17    29.96R WCI  21
BENNINGTON     CLOUDY    32  21  64 W7        30.04R WCI  26
ISLAND POND*     N/A     30 N/A N/A NW7         N/A  WCI  23
GALLUP MILLS*    N/A     30 N/A N/A MISG        N/A
MT. MANSFIELD*   N/A     19 N/A N/A CALM        N/A

_____LAKE CHAMPLAIN_____


CITY           SKY/WX    TMP DP  RH WIND       PRES   REMARKS
BURTON ISLAND*   N/A     34  30  86 NW21G30     N/A  WCI  22
COLCHESTER RF*   N/A     34  27  75 NW23        N/A  WCI  22

$$

NYZ007-026>031-035-052-083-087-201200-
_____NORTHERN NEW YORK_____


CITY           SKY/WX    TMP DP  RH WIND       PRES   REMARKS
PLATTSBURGH    CLOUDY    34  24  67 NW10G18   30.04R WCI  26
SARANAC LAKE   CLOUDY    25  22  88 SW8       30.03R WCI  16
MASSENA        CLOUDY    32  24  72 W13G25    30.15R WCI  22
OGDENSBURG*    MOCLDY    32  24  72 NW6       30.17R WCI  26
POTSDAM*       CLOUDY    30  23  74 W8        30.15R WCI  23
STARK FALLS*     N/A     27 N/A N/A NW6         N/A  WCI  20
WATERTOWN      CLOUDY    31  23  72 NW8       30.20R WCI  23
FT DRUM        CLOUDY    30  20  67 NW10      30.16R WCI  21
ALBANY         MOCLDY    34  22  61 NW15G21   30.10R WCI  24
GLENS FALLS    FAIR      33  22  63 NW15      30.07R WCI  23

$$
NHZ002-005-011-201200-
_____NEW HAMPSHIRE_____


CITY           SKY/WX    TMP DP  RH WIND       PRES   REMARKS
LEBANON        CLOUDY    36  22  56 N5        29.97R
KEENE          CLOUDY    34  24  67 NW8       29.99R WCI  27
MT WASHINGTON  SNOW      10  10 100 NW40G49     N/A  VSB 0   WCI -14
PLYMOUTH       LGT SNOW  32  28  85 W13G22    29.94R WCI  23
WHITEFIELD     LGT SNOW  32  28  85 W6        29.92R VSB 3/4 WCI  26

$$

_____REGIONAL QUEBEC LOCATIONS_____


CITY           SKY/WX    TMP DP  RH WIND       PRES   REMARKS
MONTREAL       CLOUDY    34  27  75 W15       30.04R WCI  24
QUEBEC CITY    PTSUNNY   34  32  93 SW6       29.92R WCI  29
SHERBROOKE     LGT SNOW  32  30  93 W8        29.91R WCI  25

_____REGIONAL ONTARIO LOCATIONS_____


CITY           SKY/WX    TMP DP  RH WIND       PRES   REMARKS
OTTAWA         MOCLDY    30  21  69 NW17G24   30.15R WCI  18

______KEY______
VSB  - VISIBILITY IN MILES
WCI  - WIND CHILL INDEX
HX   - HEAT INDEX
$$
NNNN




USA.gov is the U.S. government's official web portal to all federal, state and local government web resources and services.